CW9454 Weather Reports


Display with metric or nautical units.
time (UTC)temp
F
wind
direction
speed
MPH
gust
MPH
rain 1hr
in
rain 24hr
in
rain mn
in
humidity
%
barometer
mb
20260505041016 63 192 0.0 4.0 0.00 0.00 0.00 67 1010.9
20260505040053 63 197 0.0 5.0 0.00 0.00 0.00 67 1010.8
20260505035017 63 183 1.0 6.0 0.00 0.00 0.00 67 1010.8
20260505034039 63 172 0.0 5.0 0.00 0.00 0.00 67 1010.7
20260505033023 63 181 0.0 4.0 0.00 0.00 0.00 68 1010.7
20260505032017 63 175 0.0 1.0 0.00 0.00 0.00 69 1010.6
20260505031032 64 175 0.0 3.0 0.00 0.00 0.00 69 1010.7
20260505030019 64 177 0.0 3.0 0.00 0.00 0.00 69 1010.8
20260505025014 64 175 0.0 2.0 0.00 0.00 0.00 68 1010.8
20260505024048 64 157 0.0 3.0 0.00 0.00 0.00 67 1010.7
20260505023021 64 145 0.0 2.0 0.00 0.00 0.00 65 1010.7
20260505022036 65 155 0.0 3.0 0.00 0.00 0.00 64 1010.9
20260505021049 65 158 0.0 1.0 0.00 0.00 0.00 63 1010.7
20260505020016 65 162 0.0 1.0 0.00 0.00 0.00 63 1010.8
20260505015026 65 164 0.0 0.0 0.00 0.00 0.00 63 1010.5
20260505014019 65 165 0.0 3.0 0.00 0.00 0.00 63 1010.5
20260505013015 65 185 0.0 0.0 0.00 0.00 0.00 63 1010.6
20260505012029 65 186 0.0 1.0 0.00 0.00 0.00 63 1010.6
20260505011014 66 186 0.0 0.0 0.00 0.00 0.00 63 1010.4
20260505010051 66 186 0.0 0.0 0.00 0.00 0.00 62 1010.3
20260505005024 66 188 0.0 0.0 0.00 0.00 0.00 61 1010.2
20260505004019 66 189 0.0 4.0 0.00 0.00 0.00 61 1010.1
20260505003033 66 165 0.0 0.0 0.00 0.00 0.00 60 1010.2
20260505002018 67 168 0.0 0.0 0.00 0.00 0.00 59 1010.1
20260505001032 67 168 0.0 2.0 0.00 0.00 0.00 57 1010.0
20260505000020 68 113 0.0 2.0 0.00 0.00 0.00 55 1010.0
20260504235015 68 112 0.0 0.0 0.00 0.00 0.00 54 1010.1
20260504234028 69 112 0.0 1.0 0.00 0.00 0.00 52 1010.1
20260504233023 70 109 0.0 4.0 0.00 0.00 0.00 51 1010.1
20260504232015 70 132 0.0 7.0 0.00 0.00 0.00 49 1010.1
20260504231029 70 101 1.0 8.0 0.00 0.00 0.00 48 1010.3
20260504230016 71 117 0.0 6.0 0.00 0.00 0.00 47 1010.0
20260504225031 71 154 1.0 8.0 0.00 0.00 0.00 46 1010.1
20260504224017 72 135 1.0 6.0 0.00 0.00 0.00 46 1010.2
20260504223012 73 124 2.0 8.0 0.00 0.00 0.00 44 1010.0
20260504222026 73 145 1.0 7.0 0.00 0.00 0.00 44 1010.0
20260504221019 74 107 0.0 7.0 0.00 0.00 0.00 43 1010.0
20260504220047 74 103 2.0 8.0 0.00 0.00 0.00 43 1009.9
20260504215049 74 157 2.0 7.0 0.00 0.00 0.00 44 1010.0
20260504214040 74 88 1.0 5.0 0.00 0.00 0.00 43 1009.9
20260504213030 74 101 1.0 6.0 0.00 0.00 0.00 42 1010.1
20260504212013 74 114 3.0 11.0 0.00 0.00 0.00 42 1010.2
20260504211027 74 112 1.0 8.0 0.00 0.00 0.00 41 1010.1
20260504210014 75 135 2.0 7.0 0.00 0.00 0.00 41 1009.9
20260504205029 74 161 0.0 7.0 0.00 0.00 0.00 42 1010.2
20260504204022 75 114 2.0 7.0 0.00 0.00 0.00 40 1010.2
20260504203016 75 150 1.0 7.0 0.00 0.00 0.00 42 1010.2
20260504202031 76 152 1.0 5.0 0.00 0.00 0.00 39 1010.3
20260504201025 76 102 1.0 7.0 0.00 0.00 0.00 39 1010.3
20260504200013 76 118 0.0 4.0 0.00 0.00 0.00 44 1010.5
20260504195026 75 176 0.0 6.0 0.00 0.00 0.00 40 1010.8
20260504194039 75 124 1.0 8.0 0.00 0.00 0.00 43 1011.0
20260504193024 75 100 3.0 7.0 0.00 0.00 0.00 38 1011.1
20260504192018 75 152 0.0 4.0 0.00 0.00 0.00 40 1011.2
20260504191012 75 101 1.0 8.0 0.00 0.00 0.00 41 1011.3
20260504190020 75 110 2.0 8.0 0.00 0.00 0.00 39 1011.5
20260504185014 74 109 2.0 7.0 0.00 0.00 0.00 40 1011.5
20260504184029 74 185 0.0 7.0 0.00 0.00 0.00 41 1011.7
20260504183024 74 112 1.0 4.0 0.00 0.00 0.00 40 1011.8
20260504182038 75 99 2.0 8.0 0.00 0.00 0.00 40 1011.9
20260504181023 75 288 1.0 7.0 0.00 0.00 0.00 36 1011.9
20260504180040 76 252 1.0 9.0 0.00 0.00 0.00 38 1012.1
20260504175025 75 109 0.0 8.0 0.00 0.00 0.00 38 1012.2
20260504174019 75 259 0.0 6.0 0.00 0.00 0.00 36 1012.4
20260504173031 75 167 1.0 9.0 0.00 0.00 0.00 35 1012.5
20260504172025 74 242 4.0 11.0 0.00 0.00 0.00 36 1012.7
20260504171020 73 235 2.0 13.0 0.00 0.00 0.00 35 1012.8
20260504151021 70 305 0.0 7.0 0.00 0.00 0.00 47 1014.0
20260504141038 61 257 0.0 2.0 0.00 0.00 0.00 53 1014.3
20260504081038 51 238 0.0 0.0 0.00 0.00 0.00 66 1015.4